This is the latest recevied weather packets stored in our database for station/object p43g-13. If no packets are shown the sender has not sent any weather packets the latest 10 day(s).
| Time | Temp. | Humidity | Pressure | Rain* | Wind** | Luminosity | Snow |
|---|---|---|---|---|---|---|---|
| 1787780139 | 30° C | 78% | 1010.1 hPa | 0 mm | - | 122 W/m² | - |
| 1787779838 | 30° C | 78% | 1010.1 hPa | 0 mm | - | 130 W/m² | - |
| 1787779538 | 30° C | 78% | 1010.2 hPa | 0 mm | - | 146 W/m² | - |
| 1787779239 | 30° C | 79% | 1009.8 hPa | 0 mm | - | 162 W/m² | - |
| 1787778939 | 30° C | 79% | 1010.1 hPa | 0 mm | - | 176 W/m² | - |
| 1787778639 | 30.56° C | 80% | 1010.2 hPa | 0 mm | - | 128 W/m² | - |
| 1787778339 | 30.56° C | 79% | 1009.7 hPa | 0 mm | - | 152 W/m² | - |
| 1787778039 | 30.56° C | 79% | 1010.1 hPa | 0 mm | - | 150 W/m² | - |
| 1787777739 | 30.56° C | 78% | 1010.3 hPa | 0 mm | - | 279 W/m² | - |
| 1787777439 | 30.56° C | 77% | 1009.9 hPa | 0 mm | - | 161 W/m² | - |
| 1787777171 | 30.56° C | 77% | 1010 hPa | 0 mm | - | 136 W/m² | - |
| 1787776839 | 30.56° C | 78% | 1010.2 hPa | 0 mm | - | 332 W/m² | - |
| 1787776539 | 30.56° C | 77% | 1010.2 hPa | 0 mm | - | 355 W/m² | - |
| 1787776239 | 31.11° C | 76% | 1010.1 hPa | 0 mm | - | 370 W/m² | - |
| 1787775939 | 31.11° C | 75% | 1010 hPa | 0 mm | - | 379 W/m² | - |
| 1787775639 | 31.11° C | 76% | 1010 hPa | 0 mm | - | 411 W/m² | - |
| 1787775339 | 31.11° C | 76% | 1010.2 hPa | 0 mm | - | 429 W/m² | - |
| 1787775039 | 31.11° C | 76% | 1010.1 hPa | 0 mm | - | 463 W/m² | - |
| 1787774739 | 31.11° C | 76% | 1010.1 hPa | 0 mm | - | 492 W/m² | - |
| 1787774439 | 31.11° C | 76% | 1010 hPa | 0 mm | - | 511 W/m² | - |
| 1787774139 | 30.56° C | 78% | 1010.2 hPa | 0 mm | - | 541 W/m² | - |
| 1787773840 | 31.11° C | 77% | 1010.2 hPa | 0 mm | - | 595 W/m² | - |
| 1787773539 | 31.11° C | 76% | 1010.3 hPa | 0 mm | - | 589 W/m² | - |
| 1787773240 | 31.11° C | 77% | 1010.4 hPa | 0 mm | - | 622 W/m² | - |
| 1787772940 | 31.67° C | 76% | 1010.2 hPa | 0 mm | - | 622 W/m² | - |
* Rain latest hour (hover to see other rain measurements)
** Current wind speed in m/s (hover to see current wind gust speed)